Flag for U.S.A. Weather past 2 weeks in Pembroke Pines, Florida, U.S.A.

76 °F

Passing clouds.

Feels Like: 76 °F
Forecast: 74 / 87 °F
Wind: 6 mph from West

Location: North Perry Airport

Current Time: Oct 14, 2015 at 1:01:40 AM

Latest Report: Oct 13, 2015 at 11:53 PM

Visibility: 10 mi

Pressure: 29.97 "Hg

Humidity: 91%

Dew point: 73 °F

Location of Pembroke PinesLocation

Historic Weather in Pembroke Pines — Graph


Pembroke Pines temperature yesterday

Maximum temperature yesterday: 86 °F (at 11:53 AM)
Minimum temperature yesterday: 73 °F (at 6:53 AM)
Average temperature yesterday: 79 °F

Past Weeks' High & Low Weather Summary

High92 °F (Oct 1, 2:53 PM)97% (Oct 12, 7:53 AM)30.06 "Hg (Oct 12, 7:53 AM)
Low71 °F (Oct 4, 5:53 AM)39% (Oct 3, 1:53 PM)29.52 "Hg (Oct 2, 3:53 PM)
Average81 °F75%29.84 "Hg
* Reported Sep 28 10:53 PM — Oct 13 10:53 PM, Pembroke Pines, Weather by CustomWeather, © 2015

Note: Actual official high and low records may vary slightly from our data, if they occured in-between our weather recording intervals... More about our weather records


Pembroke Pines weather history for previous 24 hours

Time TempWeatherWind HumidityBarometerVisibility
10:53 PM
Tue, Oct 13
76 °FMostly cloudy.6 mph91%29.98 "Hg10 mi
9:53 PM77 °FLight rain. Mostly cloudy.8 mph88%29.98 "Hg10 mi
8:53 PM77 °FMostly cloudy.3 mph88%29.97 "Hg10 mi
7:53 PM77 °FLight rain. Mostly cloudy.8 mph88%29.96 "Hg10 mi
6:53 PM79 °FBroken clouds.3 mph88%29.94 "Hg10 mi
5:53 PM77 °FBroken clouds.No wind90%29.93 "Hg10 mi
4:53 PM78 °FCloudy.12 mph87%29.92 "Hg10 mi
3:57 PM78 °FHeavy rain. Fog.6 mph87%29.95 "Hg1 mi
2:53 PM85 °FPartly sunny.10 mph61%29.94 "Hg10 mi
1:53 PM85 °FPartly sunny.10 mph59%29.96 "Hg10 mi
12:53 PM86 °FScattered clouds.6 mph53%29.97 "Hg10 mi
11:53 AM86 °FSunny.5 mph53%29.98 "Hg10 mi
10:53 AM85 °FSunny.5 mph57%30.00 "Hg10 mi
9:53 AM84 °FSunny.No wind55%29.99 "Hg10 mi
8:53 AM78 °FSunny.No wind76%29.98 "Hg10 mi
7:53 AM74 °FClear.No wind88%29.96 "Hg10 mi
6:53 AM73 °FClear.No wind84%29.95 "Hg10 mi
5:53 AM74 °FClear.No wind82%29.93 "Hg10 mi
4:53 AM74 °FClear.No wind82%29.93 "Hg10 mi
2:53 AM75 °FClear.No wind76%29.93 "Hg10 mi
1:53 AM75 °FClear.5 mph76%29.95 "Hg10 mi
Weather by CustomWeather, © 2015

See weather overviewHow to use our weather pages